[[{"header":{"parameterUnit":"m.s-1","parameterCategory":1,"la1":30.2991,"la2":30.254,"lo1":-89.0895,"lo2":-89.0444,"dy":0.0017,"dx":0.0017,"nx":28,"ny":28,"refTime":"2025-07-09T09:00:00:Z","depth":0,"parameterNumber":2,"parameterNumberName":"U-component_of_WINDS"},"data":[0,0,0,0,0,0,0,0,0,0,0,0,0,0,0,0,0,0,0,0,0,0,0,0,0,0,0,0,0,0,0,0,0,0,0,0,0,0,0,0,0,0,0,0,0,0,0,0,0,0,0,0,0,0,0,0,0,0,4.4802,4.4802,0,4.4823,4.4823,4.4824,4.4656,4.4651,4.4647,4.4642,4.4668,4.4673,4.4678,0,0,0,0,0,0,0,0,0,0,0,0,0,4.4617,4.4621,4.4802,4.4802,4.4802,4.4823,4.4823,4.4824,4.4657,4.4651,4.4645,4.464,4.4667,4.4673,4.4679,0,0,0,0,0,0,0,0,0,0,0,0,0,4.4674,4.4623,4.4802,4.4721,4.4714,4.4823,4.4823,4.4824,4.4658,4.4651,4.4644,4.4637,4.4665,4.4672,4.468,4.4868,0,0,4.4703,4.4706,0,0,0,0,0,0,0,0,4.4671,4.4681,4.4733,4.4727,4.4719,4.4729,4.4767,4.4839,4.466,4.468,4.4642,4.4634,4.4695,4.4699,4.4719,4.4869,4.487,4.4704,4.4708,4.4711,4.4714,0,0,0,0,0,0,0,4.4667,4.4679,4.481,4.4734,4.4726,4.4684,4.4685,4.478,4.4727,4.4677,4.4665,4.467,4.469,4.4712,4.4718,4.487,4.4703,4.471,4.4715,4.4718,4.517,4.5177,0,0,0,0,0,0,4.4674,4.4677,4.4809,4.4811,4.4677,4.4693,4.4694,4.4734,4.4725,4.4717,4.4676,4.4662,4.4703,4.471,4.4719,4.4935,4.4711,4.4719,4.4723,4.5163,4.5172,4.518,0,0,0,0,0,0,4.467,4.4687,4.4809,4.474,4.4753,4.4704,4.475,4.4738,4.476,4.4724,4.4713,4.4708,4.4697,4.4708,4.483,4.4933,4.4722,4.4729,4.5154,4.5165,4.5176,4.5371,0,0,0,0,0,0,4.4666,4.4687,4.4758,4.4743,4.4757,4.4921,4.4756,4.4743,4.4773,4.4755,4.4752,4.4744,4.4693,4.482,4.4838,4.494,4.4735,4.5144,4.5159,4.5172,4.5355,4.5387,4.5415,0,0,0,0,0,4.466,4.4814,4.4763,4.478,4.4845,4.4927,4.4935,4.4871,4.4782,4.4852,4.4828,4.4745,4.4919,4.4834,4.4853,4.4959,4.5138,4.5155,4.5171,4.5342,4.5381,4.5414,0,0,0,0,0,0,4.4846,4.4811,4.4754,4.4908,4.4921,4.4898,4.4986,4.4915,4.4955,4.4937,4.4857,4.4858,4.4993,4.4988,4.4893,4.5137,4.5013,4.5034,4.5136,4.5173,4.5203,4.5201,4.4741,0,0,0,0,0,4.4904,4.4973,4.4939,4.5079,4.5088,4.5036,4.507,4.5018,4.503,4.5035,4.502,4.5035,4.5092,4.5133,4.5184,4.5353,4.5348,4.5435,4.5465,4.549,4.5509,4.5594,4.5631,4.5235,4.5235,4.5234,0,0,4.5027,4.5016,4.5065,4.5116,4.512,4.5192,4.5042,4.5127,4.5179,4.5048,4.5161,4.5151,4.5162,4.5308,4.5371,4.5308,4.5617,4.5511,4.5531,4.5537,4.5615,4.5653,4.5686,4.5246,4.5244,4.5242,0,0,4.5287,4.5287,4.54,4.5407,4.5414,4.5377,4.5405,4.5392,4.5379,4.549,4.5392,4.5454,4.5556,4.5567,4.5586,4.5844,4.5767,4.5863,4.602,4.6104,4.6135,4.6162,4.6252,4.6285,4.5882,4.5883,4.5883,0,4.5439,4.5543,4.5469,4.5558,4.5581,4.5463,4.5576,4.5587,4.5612,4.5631,4.5559,4.5681,4.5681,4.5825,4.5887,4.5907,4.5935,4.5863,4.6136,4.6163,4.6187,4.6272,4.6306,4.5894,4.5893,4.5892,4.5891,0,4.5728,4.5802,4.5893,4.5915,4.5949,4.6051,4.5991,4.6035,4.598,4.5951,4.6064,4.6059,4.6105,4.6135,4.6085,4.6272,4.6232,4.615,4.6023,4.6238,4.6316,4.6348,4.5911,4.5907,4.5903,4.59,0,0,4.6109,4.6085,4.612,4.6126,4.6123,4.6179,4.6273,4.6316,4.6353,4.6374,4.645,4.6536,4.6459,4.648,4.6428,4.6503,4.6703,4.641,4.6409,4.6463,4.6906,4.6967,4.7006,4.6652,4.6658,4.6663,4.6905,0,4.636,4.6518,4.6452,4.6617,4.6682,4.6568,4.665,4.6657,4.6632,4.6683,4.6655,4.6717,4.6611,4.6623,4.6691,4.6665,4.6791,4.6647,4.6722,4.6726,4.6722,4.7047,4.7113,4.7341,4.6935,4.694,4.6944,0,4.6675,4.6703,4.6874,4.6854,4.6879,4.6954,4.6985,4.7036,4.7041,4.7016,4.7038,4.6969,4.7059,4.6933,4.7055,4.6958,4.6985,4.6977,4.6984,4.6988,4.6847,4.7059,4.7413,4.7447,4.6992,4.6988,4.6984,0,4.6932,4.7013,4.7124,4.7134,4.7115,4.717,4.7165,4.7161,4.719,4.7217,4.7234,4.7274,4.7295,4.7327,4.7269,4.7183,4.7399,4.7269,4.7381,4.7383,4.7432,4.7429,4.7794,4.7452,4.7451,4.7451,4.745,0,4.7218,4.7327,4.7239,4.7308,4.7424,4.7346,4.7465,4.7447,4.7444,4.7507,4.7412,4.7473,4.7394,4.7447,4.7403,4.7509,4.7521,4.7503,4.749,4.7511,4.7513,4.7527,4.7509,4.746,4.7458,4.7456,4.7454,0,4.7526,4.7471,4.7585,4.7555,4.755,4.7638,4.7612,4.7674,4.764,4.7721,4.7735,4.7683,4.774,4.7685,4.7741,4.7711,4.7852,4.7817,4.7851,4.784,4.7955,4.7944,4.834,4.8387,4.8017,4.8021,4.8024,0,4.7712,4.7791,4.7769,4.7802,4.7802,4.7859,4.7885,4.7811,4.7843,4.7851,4.7911,4.796,4.7994,4.8091,4.8059,4.81,4.8063,4.8199,4.8069,4.8087,4.8063,4.8058,4.8065,4.8226,4.823,4.8234,4.8237,0,4.8046,4.8014,4.8055,4.8087,4.812,4.8142,4.8157,4.819,4.8113,4.8153,4.8209,4.8236,4.8289,4.8338,4.8368,4.8363,4.8288,4.8278,4.8305,4.8327,4.8342,4.8333,4.7921,4.8269,4.8266,4.8264,4.8262,4.8261,4.8297,4.8361,4.8353,4.8401,4.8403,4.8418,4.8473,4.8444,4.8488,4.8524,4.8478,4.8546,4.8544,4.8576,4.858,4.8632,4.8574,4.8616,4.8626,4.8637,4.8652,4.8335,4.8637,4.8636,4.8635,4.8635,4.8634,0,4.8624,4.8612,4.8657,4.8678,4.8716,4.8638,4.8649,4.8685,4.8745,4.875,4.8784,4.8846,4.8892,4.8862,4.89,4.8948,4.8914,4.896,4.8956,4.8955,4.8702,4.8673,4.8987,4.8987,4.8987,4.8987,4.8987,4.8987,4.8799,4.8901,4.8868,4.8969,4.8957,4.902,4.9033,4.9045,4.9047,4.912,4.9156,4.9135,4.9125,4.9161,4.9199,4.9189,4.9207,4.9266,4.9244,4.9008,4.8973,4.894,4.8912,4.9271,4.9271,4.9491,4.9493,4.9495]},{"header":{"parameterUnit":"m.s-1","parameterCategory":1,"la1":30.2991,"la2":30.254,"lo1":-89.0895,"lo2":-89.0444,"dy":0.0017,"dx":0.0017,"nx":28,"ny":28,"refTime":"2025-07-09T09:00:00:Z","depth":0,"parameterNumber":3,"parameterNumberName":"V-component_of_WINDS"},"data":[0,0,0,0,0,0,0,0,0,0,0,0,0,0,0,0,0,0,0,0,0,0,0,0,0,0,0,0,0,0,0,0,0,0,0,0,0,0,0,0,0,0,0,0,0,0,0,0,0,0,0,0,0,0,0,0,0,0,3.6945,3.6947,0,3.716,3.7163,3.7165,3.7202,3.72,3.7198,3.7197,3.7411,3.7418,3.7426,0,0,0,0,0,0,0,0,0,0,0,0,0,3.6556,3.6563,3.6944,3.6947,3.695,3.716,3.7163,3.7166,3.7202,3.72,3.7198,3.7196,3.7409,3.7417,3.7426,0,0,0,0,0,0,0,0,0,0,0,0,0,3.6744,3.6566,3.6944,3.6994,3.7,3.7159,3.7163,3.7167,3.7203,3.72,3.7197,3.7195,3.7406,3.7417,3.7428,3.7551,0,0,3.7461,3.7466,0,0,0,0,0,0,0,0,3.6733,3.6758,3.6984,3.699,3.6998,3.7152,3.7105,3.7295,3.7203,3.7126,3.7197,3.7193,3.7327,3.7344,3.739,3.7561,3.757,3.7462,3.7469,3.7474,3.7477,0,0,0,0,0,0,0,3.672,3.6749,3.703,3.6987,3.6996,3.7002,3.7026,3.7141,3.7238,3.7132,3.7135,3.7161,3.733,3.7379,3.7396,3.7573,3.7462,3.7472,3.7479,3.7483,3.7852,3.7855,0,0,0,0,0,0,3.6699,3.6738,3.7023,3.7036,3.6856,3.7012,3.7038,3.7105,3.7237,3.7255,3.7163,3.7162,3.7362,3.7383,3.7403,3.7555,3.7474,3.7484,3.7491,3.7849,3.7852,3.7856,0,0,0,0,0,0,3.6691,3.6724,3.7014,3.6888,3.6925,3.7021,3.7096,3.7111,3.716,3.7261,3.7277,3.7196,3.7361,3.7388,3.7513,3.7562,3.7489,3.7499,3.7845,3.785,3.7854,3.7859,0,0,0,0,0,0,3.6679,3.6721,3.6771,3.6889,3.6932,3.7123,3.7099,3.7117,3.718,3.7181,3.7296,3.7313,3.736,3.7497,3.7524,3.7576,3.7508,3.7841,3.7847,3.7853,3.7854,3.7863,3.787,0,0,0,0,0,3.6665,3.6763,3.6773,3.6807,3.6997,3.7126,3.715,3.7205,3.7184,3.7233,3.7297,3.7309,3.7553,3.7509,3.7541,3.7597,3.7838,3.7845,3.7852,3.7851,3.7861,3.787,0,0,0,0,0,0,3.6646,3.6779,3.6792,3.6931,3.7017,3.7132,3.7196,3.7215,3.7307,3.7303,3.7365,3.7391,3.7513,3.7567,3.7517,3.7721,3.7693,3.7707,3.7682,3.7692,3.77,3.7684,3.7517,0,0,0,0,0,3.6658,3.6755,3.6865,3.6976,3.7019,3.71,3.7158,3.7193,3.7284,3.732,3.7393,3.7479,3.7575,3.7636,3.773,3.7862,3.7886,3.7916,3.7924,3.7929,3.794,3.8012,3.8026,3.7879,3.7879,3.7879,0,0,3.6684,3.6768,3.6825,3.6974,3.7045,3.7141,3.713,3.7233,3.7304,3.7335,3.7459,3.7515,3.7614,3.7743,3.7804,3.7792,3.7986,3.7938,3.7942,3.795,3.802,3.8034,3.8046,3.7884,3.7883,3.7882,0,0,3.6779,3.6854,3.6954,3.7026,3.7133,3.7186,3.721,3.7322,3.7362,3.7487,3.7512,3.7595,3.7759,3.7829,3.7885,3.8005,3.8018,3.8033,3.8073,3.8142,3.8154,3.8164,3.8205,3.8219,3.8044,3.8044,3.8044,0,3.6797,3.6945,3.7003,3.7105,3.7168,3.7202,3.7302,3.7368,3.75,3.7542,3.7527,3.7733,3.7802,3.7947,3.7976,3.8021,3.8048,3.802,3.8148,3.8159,3.817,3.8209,3.8224,3.8045,3.8045,3.8044,3.8044,0,3.696,3.7062,3.713,3.7258,3.7329,3.7429,3.75,3.7564,3.7592,3.7645,3.777,3.7855,3.7965,3.8002,3.803,3.815,3.8139,3.8136,3.8109,3.8184,3.8222,3.8237,3.8046,3.8046,3.8045,3.8045,0,0,3.7051,3.7209,3.7233,3.729,3.7411,3.7489,3.7589,3.7699,3.7752,3.7841,3.7925,3.8062,3.8059,3.8123,3.8158,3.8219,3.8305,3.8208,3.8211,3.8222,3.844,3.8442,3.8459,3.8315,3.8318,3.8321,3.8432,0,3.716,3.7343,3.7396,3.7549,3.7642,3.7674,3.7761,3.7842,3.7894,3.7979,3.8035,3.8131,3.812,3.8159,3.8221,3.8282,3.835,3.8275,3.8391,3.8395,3.8365,3.8479,3.8482,3.8582,3.8447,3.845,3.8452,0,3.7312,3.7405,3.7567,3.7673,3.7714,3.7792,3.7895,3.7977,3.8068,3.8102,3.8172,3.8202,3.8305,3.8272,3.8413,3.836,3.8411,3.8448,3.8453,3.8465,3.8427,3.8493,3.8616,3.8631,3.8476,3.8474,3.8472,0,3.736,3.7525,3.7643,3.7692,3.7819,3.7873,3.7928,3.8017,3.8079,3.8168,3.8208,3.8308,3.8362,3.8437,3.8492,3.8463,3.8627,3.8599,3.8655,3.8653,3.8688,3.8685,3.8819,3.8722,3.8721,3.8721,3.8721,0,3.7475,3.7573,3.7666,3.7739,3.7847,3.7907,3.8012,3.8069,3.8147,3.8229,3.8262,3.8338,3.8406,3.8489,3.8532,3.8641,3.8665,3.8693,3.8703,3.869,3.8686,3.8723,3.8717,3.8725,3.8724,3.8723,3.8723,0,3.7547,3.7615,3.7745,3.7855,3.7885,3.796,3.8053,3.8123,3.8175,3.8278,3.8305,3.8387,3.8487,3.8549,3.8675,3.8704,3.8823,3.8831,3.8792,3.8797,3.8849,3.8843,3.9011,3.9036,3.8922,3.8923,3.8924,0,3.7617,3.7692,3.781,3.7869,3.7925,3.8018,3.8081,3.8141,3.8205,3.8314,3.837,3.8473,3.8558,3.8715,3.8784,3.888,3.889,3.8943,3.8905,3.8888,3.8889,3.8884,3.8891,3.8949,3.895,3.895,3.8951,0,3.7731,3.776,3.7852,3.7954,3.8029,3.8112,3.8194,3.8239,3.8313,3.8382,3.8486,3.8552,3.8681,3.8781,3.8883,3.8937,3.8956,3.8962,3.898,3.8967,3.8941,3.8954,3.8809,3.8958,3.8957,3.8957,3.8957,3.8956,3.7803,3.7871,3.7965,3.8064,3.8133,3.8209,3.828,3.8341,3.8429,3.854,3.857,3.8677,3.8764,3.8904,3.8959,3.9042,3.9035,3.9061,3.9067,3.9073,3.9073,3.8928,3.9061,3.9061,3.9061,3.9061,3.9061,0,3.7919,3.798,3.8071,3.8186,3.8264,3.8276,3.8367,3.8431,3.8526,3.8606,3.869,3.8807,3.8904,3.898,3.9079,3.913,3.9141,3.9154,3.915,3.9162,3.9075,3.9049,3.9144,3.9144,3.9144,3.9144,3.9144,3.9144,3.7988,3.8103,3.8143,3.8291,3.8351,3.8459,3.8509,3.8578,3.8643,3.8773,3.8855,3.8904,3.8982,3.9087,3.9175,3.9195,3.9229,3.924,3.9261,3.9178,3.9169,3.916,3.9136,3.9247,3.9247,3.9341,3.9342,3.9343]}]]